Location: Vinland
(47.7731°N, 122.6974°W)
Time: 09:44:23
(UTC+00:00)

SR - Visible Passes

Search period start: 29 March 2023 00:00
Search period end: 08 April 2023 00:00
Orbit: 583 x 866 km, 66.7° (Epoch: 28 March)

Date Brightness Start Highest point End Pass type
(mag) Time Alt. Az. Time Alt. Az. Time Alt. Az.
29 Mar ? 09:47:55 19° NE 09:47:55 19° NE 09:49:09 10° NE visible
29 Mar ? 11:27:15 18° NW 11:27:16 18° NW 11:30:18 10° N visible
30 Mar ? 10:37:41 24° N 10:37:41 24° N 10:40:02 10° NNE visible
31 Mar ? 09:48:06 21° NNE 09:48:06 21° NNE 09:49:35 10° NNE visible
31 Mar ? 11:27:26 12° NW 11:28:12 13° NNW 11:30:08 10° N visible
01 Apr ? 08:58:30 13° NE 08:58:30 13° NE 08:58:55 10° NE visible
01 Apr ? 10:37:49 19° NNW 10:37:49 19° NNW 10:40:10 10° N visible
02 Apr ? 09:48:11 20° N 09:48:11 20° N 09:49:52 10° NNE visible
03 Apr ? 08:58:31 15° NNE 08:58:31 15° NNE 08:59:21 10° NNE visible
03 Apr ? 10:37:50 14° NNW 10:37:51 14° NNW 10:40:03 10° N visible
04 Apr ? 09:48:08 18° NNW 09:48:08 18° NNW 09:50:00 10° NNE visible
05 Apr ? 08:58:24 18° NNE 08:58:24 18° NNE 08:59:38 10° NNE visible
06 Apr ? 08:08:38 13° NNE 08:08:38 13° NNE 08:09:05 10° NNE visible
06 Apr ? 09:47:56 14° NNW 09:47:56 14° NNW 09:49:55 10° N visible
07 Apr ? 08:58:08 18° N 08:58:08 18° N 08:59:47 10° NNE visible
